Flag for Canada Weather past 2 weeks in Newmarket, Ontario, Canada

Now
81 °F

Broken clouds.


Feels Like: 82 °F
Forecast: 63 / 79 °F
Wind: 16 mph from Southwest

Location: Borden

Current Time: May 27, 2015 at 2:28:57 PM

Latest Report: May 27, 2015 at 1:00 PM


Visibility: 9 mi

Pressure: 29.91 "Hg

Humidity: 54%

Dew point: 63 °F

Location of NewmarketLocation

Historic Weather in Newmarket — Graph

°F

Newmarket temperature yesterday

Maximum temperature yesterday: 86 °F (at 2:00 PM)
Minimum temperature yesterday: 63 °F (at 6:00 AM)
Average temperature yesterday: 75 °F

Past Weeks' High & Low Weather Summary

 TemperatureHumidityPressure
High86 °F (May 18, 3:00 PM)100% (May 13, 4:54 AM)30.50 "Hg (May 13, 4:54 AM)
Low27 °F (May 14, 4:00 AM)20% (May 24, 2:00 PM)29.83 "Hg (May 12, 1:00 PM)
Average57 °F66%30.10 "Hg
* Reported May 12 1:00 PM — May 27 1:00 PM, Newmarket, Weather by CustomWeather, © 2015

Note: Actual official high and low records may vary slightly from our data, if they occured in-between our weather recording intervals... More about our weather records

Advertising

Newmarket weather history for previous 24 hours

 ConditionsComfort  
Time TempWeatherWind HumidityBarometerVisibility
1:00 PM
Wed, May 27
81 °FBroken clouds.16 mph54%29.91 "Hg9 mi
12:00 PM81 °FPartly sunny.22 mph51%29.91 "Hg9 mi
11:00 AM79 °FPartly sunny.20 mph54%29.91 "Hg9 mi
10:00 AM75 °FPassing clouds.16 mph65%29.93 "Hg9 mi
9:00 AM73 °FScattered clouds.15 mph69%29.93 "Hg9 mi
8:00 AM72 °FScattered clouds.9 mph78%29.92 "Hg9 mi
7:00 AM70 °FPartly sunny.7 mph83%29.91 "Hg9 mi
6:00 AM70 °FPassing clouds.9 mph83%29.89 "Hg9 mi
5:00 AM70 °FOvercast.9 mph83%29.88 "Hg9 mi
4:00 AM70 °FOvercast.9 mph83%29.87 "Hg9 mi
3:00 AM70 °FPassing clouds.10 mph83%29.88 "Hg9 mi
2:00 AM72 °FPassing clouds.12 mph83%29.88 "Hg9 mi
1:00 AM70 °FMostly cloudy.8 mph88%29.90 "Hg9 mi
12:00 AM68 °FPassing clouds.6 mph94%29.91 "Hg9 mi
11:00 PM
Tue, May 26
73 °FClear.13 mph74%29.91 "Hg9 mi
10:00 PM73 °FClear.7 mph69%29.92 "Hg9 mi
9:00 PM75 °FSunny.8 mph65%29.91 "Hg9 mi
8:00 PM79 °FSunny.10 mph58%29.92 "Hg9 mi
7:00 PM82 °FPassing clouds.15 mph48%29.92 "Hg9 mi
6:00 PM84 °FPassing clouds.14 mph45%29.93 "Hg9 mi
5:00 PM86 °FScattered clouds.16 mph43%29.95 "Hg9 mi
4:00 PM86 °FPartly sunny.18 mph43%29.97 "Hg9 mi
3:00 PM86 °FPartly sunny.14 mph46%29.99 "Hg9 mi
2:00 PM86 °FScattered clouds.13 mph46%30.00 "Hg9 mi
Weather by CustomWeather, © 2015

See weather overviewHow to use our weather pages